Time,TemperatureF,DewpointF,PressureIn,WindDirection,WindDirectionDegrees,WindSpeedMPH,WindSpeedGustMPH,Humidity,HourlyPrecipIn,Conditions,Clouds,dailyrainin,SoftwareType,DateUTC
2015-07-07 00:09:00,58.0,54.0,30.00,East,85,0.0,2.0,87,0.00,,,0.00,weatherlink.com 1.10,2015-07-07 07:09:00,
2015-07-07 00:24:00,57.7,54.0,30.00,East,85,0.0,0.0,87,0.00,,,0.00,weatherlink.com 1.10,2015-07-07 07:24:00,
2015-07-07 00:39:00,57.3,54.0,30.00,East,85,0.0,1.0,88,0.00,,,0.00,weatherlink.com 1.10,2015-07-07 07:39:00,
2015-07-07 00:54:00,56.9,53.0,30.00,East,85,0.0,1.0,88,0.00,,,0.00,weatherlink.com 1.10,2015-07-07 07:54:00,
2015-07-07 01:09:00,56.2,53.0,29.99,East,85,0.0,0.0,88,0.00,,,0.00,weatherlink.com 1.10,2015-07-07 08:09:00,
2015-07-07 01:24:00,55.5,52.0,29.99,East,85,0.0,0.0,88,0.00,,,0.00,weatherlink.com 1.10,2015-07-07 08:24:00,
2015-07-07 01:39:00,54.9,52.0,29.99,East,85,0.0,0.0,90,0.00,,,0.00,weatherlink.com 1.10,2015-07-07 08:39:00,
2015-07-07 01:54:00,54.3,52.0,29.99,East,85,0.0,0.0,90,0.00,,,0.00,weatherlink.com 1.10,2015-07-07 08:54:00,
2015-07-07 02:09:00,54.1,52.0,29.98,East,85,0.0,0.0,91,0.00,,,0.00,weatherlink.com 1.10,2015-07-07 09:09:00,
2015-07-07 02:24:00,53.6,51.0,29.98,East,85,0.0,0.0,90,0.00,,,0.00,weatherlink.com 1.10,2015-07-07 09:24:00,
2015-07-07 02:39:00,53.4,51.0,29.98,East,85,0.0,0.0,91,0.00,,,0.00,weatherlink.com 1.10,2015-07-07 09:39:00,
2015-07-07 02:54:00,53.0,51.0,29.98,East,85,0.0,0.0,91,0.00,,,0.00,weatherlink.com 1.10,2015-07-07 09:54:00,
2015-07-07 03:09:00,52.6,50.0,29.98,East,85,0.0,0.0,91,0.00,,,0.00,weatherlink.com 1.10,2015-07-07 10:09:00,
2015-07-07 03:24:00,52.3,50.0,29.98,East,85,0.0,0.0,92,0.00,,,0.00,weatherlink.com 1.10,2015-07-07 10:24:00,
2015-07-07 03:39:00,52.4,50.0,29.98,East,85,0.0,0.0,92,0.00,,,0.00,weatherlink.com 1.10,2015-07-07 10:39:00,
2015-07-07 03:54:00,52.2,50.0,29.98,East,85,0.0,0.0,92,0.00,,,0.00,weatherlink.com 1.10,2015-07-07 10:54:00,
2015-07-07 04:09:00,51.8,50.0,29.98,East,85,0.0,0.0,92,0.00,,,0.00,weatherlink.com 1.10,2015-07-07 11:09:00,
2015-07-07 04:24:00,51.4,49.0,29.98,East,85,0.0,0.0,92,0.00,,,0.00,weatherlink.com 1.10,2015-07-07 11:24:00,
2015-07-07 04:39:00,51.0,49.0,29.98,East,85,0.0,0.0,92,0.00,,,0.00,weatherlink.com 1.10,2015-07-07 11:39:00,
2015-07-07 04:54:00,50.5,48.0,29.98,East,85,0.0,0.0,92,0.00,,,0.00,weatherlink.com 1.10,2015-07-07 11:54:00,
2015-07-07 05:09:00,50.1,48.0,29.98,East,85,0.0,0.0,92,0.00,,,0.00,weatherlink.com 1.10,2015-07-07 12:09:00,
2015-07-07 05:24:00,50.1,48.0,29.99,East,85,0.0,0.0,93,0.00,,,0.00,weatherlink.com 1.10,2015-07-07 12:24:00,
2015-07-07 05:39:00,49.7,48.0,29.99,East,85,0.0,1.0,92,0.00,,,0.00,weatherlink.com 1.10,2015-07-07 12:39:00,
2015-07-07 05:54:00,49.4,48.0,30.00,East,85,0.0,0.0,93,0.00,,,0.00,weatherlink.com 1.10,2015-07-07 12:54:00,
2015-07-07 06:09:00,49.2,47.0,30.00,East,85,0.0,0.0,93,0.00,,,0.00,weatherlink.com 1.10,2015-07-07 13:09:00,
2015-07-07 06:24:00,49.1,47.0,30.01,East,85,0.0,0.0,93,0.00,,,0.00,weatherlink.com 1.10,2015-07-07 13:24:00,
2015-07-07 06:39:00,49.4,48.0,30.01,East,85,0.0,0.0,94,0.00,,,0.00,weatherlink.com 1.10,2015-07-07 13:39:00,
2015-07-07 06:54:00,50.6,49.0,30.01,East,85,0.0,0.0,95,0.00,,,0.00,weatherlink.com 1.10,2015-07-07 13:54:00,
2015-07-07 07:09:00,53.5,52.0,30.01,East,85,0.0,0.0,95,0.00,,,0.00,weatherlink.com 1.10,2015-07-07 14:09:00,
2015-07-07 07:24:00,56.7,55.0,30.01,East,85,0.0,1.0,95,0.00,,,0.00,weatherlink.com 1.10,2015-07-07 14:24:00,
2015-07-07 07:40:00,59.2,57.0,30.01,East,85,0.0,0.0,91,0.00,,,0.00,weatherlink.com 1.10,2015-07-07 14:40:00,
2015-07-07 07:55:00,60.7,56.0,30.01,East,85,0.0,0.0,85,0.00,,,0.00,weatherlink.com 1.10,2015-07-07 14:55:00,
2015-07-07 08:10:00,61.2,56.0,30.02,East,85,0.0,0.0,84,0.00,,,0.00,weatherlink.com 1.10,2015-07-07 15:10:00,
2015-07-07 08:25:00,62.7,57.0,30.01,East,85,0.0,0.0,82,0.00,,,0.00,weatherlink.com 1.10,2015-07-07 15:25:00,
2015-07-07 08:40:00,63.6,57.0,30.01,East,85,0.0,0.0,80,0.00,,,0.00,weatherlink.com 1.10,2015-07-07 15:40:00,
2015-07-07 08:55:00,64.7,58.0,30.01,East,85,0.0,1.0,79,0.00,,,0.00,weatherlink.com 1.10,2015-07-07 15:55:00,
2015-07-07 09:10:00,66.4,59.0,30.01,SE,128,0.0,2.0,77,0.00,,,0.00,weatherlink.com 1.10,2015-07-07 16:10:00,
2015-07-07 09:25:00,68.5,60.0,30.00,WNW,302,2.0,5.0,73,0.00,,,0.00,weatherlink.com 1.10,2015-07-07 16:25:00,
2015-07-07 09:40:00,70.1,59.0,30.00,ENE,63,1.0,4.0,69,0.00,,,0.00,weatherlink.com 1.10,2015-07-07 16:40:00,
2015-07-07 10:10:00,70.5,59.0,29.99,South,175,2.0,4.0,68,0.00,,,0.00,weatherlink.com 1.10,2015-07-07 17:10:00,
2015-07-07 10:25:00,71.6,60.0,29.99,SE,125,2.0,5.0,66,0.00,,,0.00,weatherlink.com 1.10,2015-07-07 17:25:00,
2015-07-07 10:40:00,72.4,60.0,29.98,East,89,2.0,4.0,66,0.00,,,0.00,weatherlink.com 1.10,2015-07-07 17:40:00,
2015-07-07 10:55:00,73.0,60.0,29.98,NNW,329,1.0,4.0,63,0.00,,,0.00,weatherlink.com 1.10,2015-07-07 17:55:00,
2015-07-07 11:10:00,73.8,60.0,29.98,East,100,2.0,7.0,62,0.00,,,0.00,weatherlink.com 1.10,2015-07-07 18:10:00,
2015-07-07 11:25:00,75.1,61.0,29.98,SSE,153,7.0,8.0,62,0.00,,,0.00,weatherlink.com 1.10,2015-07-07 18:25:00,
2015-07-07 11:40:00,75.6,61.0,29.97,ESE,123,4.0,8.0,60,0.00,,,0.00,weatherlink.com 1.10,2015-07-07 18:40:00,